Manor / Austin Executive, TX

7:22 AM CST on December 14, 2019 (GMT -0600)
Manor / Austin Executive

Weather History for KEDC - October, 2019

Change the Weather History Date:

Wednesday, October 16, 2019

  Actual Average (WUND) Record (WUND)
Temperature  
Mean Temperature 64 °F -  
Max Temperature 75 °F - - (-1)
Min Temperature 53 °F - - (-1)
Degree Days  
Heating Degree Days 1    
Growing Degree Days 14 (Base 50)    
Moisture  
Dew Point 46 °F    
Average Humidity 52    
Maximum Humidity 100    
Minimum Humidity 28    
Precipitation  
Precipitation 0.03 in - - ()
Sea Level Pressure  
Sea Level Pressure 30.08 in    
Wind  
Wind Speed 10 mph (NNE)    
Max Wind Speed 24 mph    
Max Gust Speed 33 mph    
Visibility 10 miles    
Events Rain    
Averages and records for this station are not official NWS values.
T = Trace of Precipitation, MM = Missing Value Source: NWS Daily Summary

Daily Weather History Graph

Daily Weather History Graph

Search for Another Location

Airport or City:

Astronomy

Oct. 16, 2019 Rise Set
Actual Time 7:33 AM CDT 6:58 PM CDT
Civil Twilight 7:08 AM CDT 7:22 PM CDT
Nautical Twilight 6:40 AM CDT 7:50 PM CDT
Astronomical Twilight 6:12 AM CDT 8:18 PM CDT
Moon 9:01 PM CDT (10/16) 9:57 AM CDT (10/16)
Length of Visible Light 12h 13m
Length of Day
11h 25m
Waning Gibbous, 92% of the Moon is Illuminated
Oct 16
Waning Gibbous
Oct 21
Last Quarter
Oct 27
New
Nov 4
First Quarter
Nov 12
Full

Hourly Weather History & Observations

Time (CDT) Temp. Dew Point Humidity Pressure Visibility Wind Dir Wind Speed Gust Speed Precip Events Conditions
12:15 AM 73.4 °F 73.4 °F 100% 29.94 in 10.0 mi Calm Calm - N/A   Scattered Clouds
12:35 AM 73.4 °F 73.4 °F 100% 29.96 in 9.0 mi Calm Calm - N/A   Mostly Cloudy
12:55 AM 73.4 °F 73.4 °F 100% 29.95 in 9.0 mi Calm Calm - N/A   Mostly Cloudy
1:15 AM 75.2 °F 73.4 °F 94% 29.95 in 10.0 mi Calm Calm - N/A   Overcast
1:35 AM 75.2 °F 71.6 °F 89% 29.95 in 10.0 mi North 6.9 mph - N/A   Mostly Cloudy
1:55 AM 75.2 °F 68.0 °F 78% 29.96 in 10.0 mi NNW 10.4 mph - N/A   Partly Cloudy
2:15 AM 73.4 °F 66.2 °F 78% 29.97 in 10.0 mi North 9.2 mph - N/A   Clear
2:35 AM 73.4 °F 64.4 °F 73% 29.96 in 10.0 mi North 17.3 mph - N/A   Clear
2:55 AM 71.6 °F 64.4 °F 78% 29.95 in 10.0 mi North 15.0 mph - N/A   Clear
3:15 AM 71.6 °F 64.4 °F 78% 29.96 in 10.0 mi North 15.0 mph 23.0 mph N/A   Scattered Clouds
3:35 AM 71.6 °F 64.4 °F 78% 29.97 in 10.0 mi North 15.0 mph 23.0 mph N/A   Overcast
3:55 AM 71.6 °F 66.2 °F 83% 29.97 in 10.0 mi North 16.1 mph 20.7 mph N/A   Overcast
4:15 AM 71.6 °F 66.2 °F 83% 29.98 in 10.0 mi North 16.1 mph 24.2 mph N/A   Overcast
4:35 AM 71.6 °F 66.2 °F 83% 29.99 in 10.0 mi North 20.7 mph 32.2 mph N/A   Overcast
4:55 AM 69.8 °F 64.4 °F 83% 30.01 in 10.0 mi North 19.6 mph 28.8 mph N/A   Overcast
5:15 AM 68.0 °F 60.8 °F 78% 30.02 in 10.0 mi North 17.3 mph 29.9 mph N/A   Overcast
5:35 AM 66.2 °F 57.2 °F 73% 30.03 in 10.0 mi North 18.4 mph 29.9 mph N/A Rain Light Rain
5:55 AM 66.2 °F 55.4 °F 68% 30.04 in 10.0 mi North 20.7 mph 25.3 mph N/A   Overcast
6:15 AM 66.2 °F 50.0 °F 56% 30.04 in 10.0 mi NNE 16.1 mph 24.2 mph N/A   Overcast
6:35 AM 66.2 °F 48.2 °F 52% 30.05 in 10.0 mi North 13.8 mph 27.6 mph N/A   Overcast
6:55 AM 64.4 °F 48.2 °F 56% 30.05 in 10.0 mi North 18.4 mph 24.2 mph N/A   Overcast
7:15 AM 64.4 °F 46.4 °F 52% 30.06 in 10.0 mi North 18.4 mph 26.5 mph N/A   Overcast
7:35 AM 64.4 °F 46.4 °F 52% 30.07 in 10.0 mi North 19.6 mph 27.6 mph N/A   Overcast
7:55 AM 64.4 °F 46.4 °F 52% 30.08 in 10.0 mi NNE 15.0 mph - N/A   Overcast
8:15 AM 64.4 °F 46.4 °F 52% 30.08 in 10.0 mi NNE 18.4 mph 24.2 mph N/A   Overcast
8:35 AM 64.4 °F 44.6 °F 49% 30.10 in 10.0 mi North 15.0 mph - N/A   Overcast
9:35 AM 64.4 °F 41.0 °F 42% 30.14 in 10.0 mi North 18.4 mph 27.6 mph N/A   Overcast
9:55 AM - - N/A% 30.16 in 10.0 mi North - - N/A   Mostly Cloudy
10:15 AM 64.4 °F 37.4 °F 37% 30.14 in - North - - N/A   Mostly Cloudy
10:35 AM - - N/A% - - North - - N/A   Unknown
10:55 AM 66.2 °F 37.4 °F 35% 30.13 in 10.0 mi NNE 21.9 mph 33.4 mph 0.03 in   Unknown
11:35 AM 66.2 °F 35.6 °F 32% 30.14 in 10.0 mi NNE 24.2 mph 32.2 mph N/A   Unknown
11:55 AM 66.2 °F 35.6 °F 32% 30.15 in 10.0 mi North 17.3 mph 25.3 mph N/A   Clear
12:15 PM 66.2 °F 35.6 °F 32% 30.17 in 10.0 mi North 18.4 mph 25.3 mph N/A   Mostly Cloudy
12:35 PM 66.2 °F 35.6 °F 32% 30.17 in 10.0 mi NNE 17.3 mph 23.0 mph N/A   Overcast
12:55 PM 66.2 °F 35.6 °F 32% 30.16 in 10.0 mi NNE 21.9 mph 27.6 mph N/A   Overcast
1:15 PM 66.2 °F 33.8 °F 30% 30.17 in 10.0 mi NNE 13.8 mph 21.9 mph N/A   Overcast
1:35 PM 68.0 °F 35.6 °F 30% 30.17 in 10.0 mi North 18.4 mph 21.9 mph N/A   Overcast
1:55 PM 68.0 °F 35.6 °F 30% 30.15 in 10.0 mi North 18.4 mph - N/A   Scattered Clouds
2:15 PM 68.0 °F 35.6 °F 30% 30.14 in 10.0 mi NNE 17.3 mph 21.9 mph N/A   Clear
2:35 PM 66.2 °F 35.6 °F 32% 30.13 in 10.0 mi North 13.8 mph 20.7 mph N/A   Clear
2:55 PM 66.2 °F 35.6 °F 32% 30.13 in 10.0 mi North 13.8 mph - N/A   Clear
3:15 PM 68.0 °F 35.6 °F 30% 30.13 in 10.0 mi NNE 12.7 mph - N/A   Clear
3:35 PM 68.0 °F 35.6 °F 30% 30.14 in 10.0 mi NNE 15.0 mph - N/A   Clear
3:55 PM 66.2 °F 35.6 °F 32% 30.13 in 10.0 mi NNE 13.8 mph - N/A   Clear
4:15 PM 66.2 °F 32.0 °F 28% 30.11 in 10.0 mi North 13.8 mph - N/A   Clear
4:35 PM 66.2 °F 35.6 °F 32% 30.10 in 10.0 mi North 9.2 mph - N/A   Clear
4:55 PM 66.2 °F 35.6 °F 32% 30.08 in 10.0 mi NNE 16.1 mph 21.9 mph N/A   Clear
5:15 PM 66.2 °F 35.6 °F 32% 30.08 in 10.0 mi NNE 15.0 mph 19.6 mph N/A   Clear
5:35 PM 68.0 °F 35.6 °F 30% 30.08 in 10.0 mi North 11.5 mph - N/A   Clear
5:55 PM 66.2 °F 35.6 °F 32% 30.07 in 10.0 mi North 13.8 mph - N/A   Clear
6:15 PM 66.2 °F 37.4 °F 35% 30.05 in 10.0 mi NNE 11.5 mph 17.3 mph N/A   Clear
6:35 PM 66.2 °F 37.4 °F 35% 30.08 in 10.0 mi North 10.4 mph - N/A   Clear
6:55 PM 66.2 °F 37.4 °F 35% 30.08 in 10.0 mi North 8.1 mph - N/A   Clear
7:15 PM 64.4 °F 37.4 °F 37% 30.07 in 10.0 mi NE 6.9 mph - N/A   Clear
7:35 PM 64.4 °F 37.4 °F 37% 30.08 in 10.0 mi NE 5.8 mph - N/A   Clear
7:55 PM 64.4 °F 39.2 °F 40% 30.08 in 10.0 mi NE 8.1 mph - N/A   Clear
8:15 PM 62.6 °F 39.2 °F 42% 30.09 in 10.0 mi NE 4.6 mph - N/A   Clear
8:35 PM 62.6 °F 39.2 °F 42% 30.10 in 10.0 mi Calm Calm - N/A   Clear
8:55 PM 60.8 °F 39.2 °F 45% 30.12 in 10.0 mi Calm Calm - N/A   Clear
9:15 PM 60.8 °F 39.2 °F 45% 30.11 in 10.0 mi ENE 5.8 mph - N/A   Clear
9:35 PM 59.0 °F 39.2 °F 48% 30.13 in 10.0 mi Calm Calm - N/A   Clear
9:55 PM 59.0 °F 41.0 °F 51% 30.12 in 10.0 mi Calm Calm - N/A   Partly Cloudy
10:15 PM 57.2 °F 41.0 °F 55% 30.14 in 10.0 mi Calm Calm - N/A   Scattered Clouds
10:35 PM 57.2 °F 41.0 °F 55% 30.14 in 10.0 mi NNW 3.5 mph - N/A   Partly Cloudy
10:55 PM 57.2 °F 41.0 °F 55% 30.14 in 10.0 mi Calm Calm - N/A   Partly Cloudy
11:15 PM 53.6 °F 41.0 °F 62% 30.14 in 10.0 mi Calm Calm - N/A   Partly Cloudy
11:35 PM 55.4 °F 41.0 °F 58% 30.14 in 10.0 mi Calm Calm - N/A   Clear
11:55 PM 55.4 °F 41.0 °F 58% 30.13 in 10.0 mi NNW 5.8 mph - N/A   Clear